Location: Isles
(48.9125°N, 2.8272°E)
Time: 11:53:00
(UTC+00:00)

Meteor PRIRODA - Pass Details

Date: 03 February 2023
Orbit: 473 x 489 km, 97.6° (Epoch: 29 March)

Event Time Altitude Azimuth Distance (km) Brightness Sun altitude
Rises 17:35:00 0° 171° (S) 2,511 7.3 -7.9°
Reaches altitude 10° 17:37:03 10° 175° (S) 1,638 6.4 -8.2°
Maximum altitude 17:40:33 67° 258° (WSW) 521 4.0 -8.8°
Drops below altitude 10° 17:44:05 10° 342° (NNW) 1,656 6.3 -9.4°
Sets 17:46:10 0° 345° (NNW) 2,542 7.2 -9.7°
